TimeCDT,TemperatureF,Dew PointF,Humidity,Sea Level PressureIn,VisibilityMPH,Wind Direction,Wind SpeedMPH,Gust SpeedMPH,PrecipitationIn,Events,Conditions,WindDirDegrees,DateUTC
12:53 AM,45.0,37.9,76,30.06,10.0,NNW,6.9,-,N/A,,Clear,340,2012-10-28 05:53:00
1:53 AM,44.1,37.0,76,30.05,10.0,NNW,9.2,-,N/A,,Clear,340,2012-10-28 06:53:00
2:53 AM,42.1,37.0,82,30.05,10.0,NNW,9.2,-,N/A,,Clear,330,2012-10-28 07:53:00
3:53 AM,41.0,36.0,82,30.05,10.0,NNW,6.9,-,N/A,,Clear,340,2012-10-28 08:53:00
4:53 AM,41.0,36.0,82,30.06,10.0,NNW,6.9,-,N/A,,Clear,340,2012-10-28 09:53:00
5:53 AM,41.0,36.0,82,30.07,10.0,North,9.2,-,N/A,,Clear,350,2012-10-28 10:53:00
6:53 AM,41.0,36.0,82,30.08,10.0,NNW,6.9,-,N/A,,Clear,340,2012-10-28 11:53:00
7:53 AM,41.0,36.0,82,30.09,10.0,NNW,9.2,-,N/A,,Clear,340,2012-10-28 12:53:00
8:53 AM,45.0,37.0,74,30.11,10.0,North,10.4,-,N/A,,Clear,350,2012-10-28 13:53:00
9:53 AM,48.9,37.0,64,30.12,10.0,North,11.5,-,N/A,,Clear,350,2012-10-28 14:53:00
10:53 AM,53.1,37.9,57,30.12,10.0,North,16.1,-,N/A,,Clear,350,2012-10-28 15:53:00
12:53 PM,59.0,35.1,41,30.09,10.0,North,12.7,23.0,N/A,,Clear,350,2012-10-28 17:53:00
1:53 PM,61.0,35.1,38,30.06,10.0,NNW,19.6,25.3,N/A,,Clear,340,2012-10-28 18:53:00
2:53 PM,62.1,34.0,35,30.06,10.0,North,10.4,21.9,N/A,,Clear,350,2012-10-28 19:53:00
3:53 PM,62.1,34.0,35,30.05,10.0,NW,16.1,21.9,N/A,,Clear,320,2012-10-28 20:53:00
4:53 PM,60.1,33.1,36,30.06,10.0,NNW,12.7,-,N/A,,Clear,330,2012-10-28 21:53:00
5:53 PM,57.0,34.0,42,30.08,10.0,NNW,9.2,-,N/A,,Clear,340,2012-10-28 22:53:00
6:53 PM,52.0,36.0,54,30.09,10.0,NNW,4.6,-,N/A,,Clear,340,2012-10-28 23:53:00
7:53 PM,46.9,37.0,68,30.11,10.0,NNW,5.8,-,N/A,,Clear,330,2012-10-29 00:53:00
8:53 PM,46.9,37.0,68,30.13,10.0,NNW,6.9,-,N/A,,Clear,330,2012-10-29 01:53:00
9:53 PM,46.0,36.0,68,30.15,10.0,NNW,6.9,-,N/A,,Clear,330,2012-10-29 02:53:00
10:53 PM,45.0,36.0,71,30.16,10.0,NNW,6.9,-,N/A,,Clear,340,2012-10-29 03:53:00
11:53 PM,45.0,36.0,71,30.17,10.0,NNW,6.9,-,N/A,,Clear,330,2012-10-29 04:53:00